Simultaneous Nadir Overpasses (SNOs) Predictions

Prediction of SNOs between AQUA and METOP-A Satellite Orbit:

Table of predicted SNOs for the next 14.0 days since TLE Epoch: 9/14/2012
Index Date (AQUA) Time (AQUA) AQUA Lat,Lon Date (METOP-A) Time (METOP-A) METOP-A Lat,Lon Distance(km) Time Diff (sec)
1 09/16/2012 08:54:53 73.73, 40.66 09/16/2012 08:53:41 73.74, 40.58 2.65 72
2 09/16/2012 09:44:21 -73.85,-151.95 09/16/2012 09:44:21 -73.82,-151.90 3.05 0
3 09/16/2012 10:33:49 73.89, 15.60 09/16/2012 10:35:00 73.87, 15.55 2.34 71
4 09/19/2012 04:29:07 73.75, 107.06 09/19/2012 04:28:02 73.77, 107.03 1.85 65
5 09/19/2012 05:18:35 -73.86, -85.53 09/19/2012 05:18:42 -73.85, -85.44 3.20 7
6 09/19/2012 06:08:06 74.06, 81.66 09/19/2012 06:09:17 74.09, 82.49 25.57 71
7 09/22/2012 00:03:24 73.78, 173.42 09/22/2012 00:02:24 73.79, 173.50 2.51 60
8 09/22/2012 00:52:51 -73.83, -19.05 09/22/2012 00:53:05 -73.83, -19.08 0.96 14
9 09/22/2012 01:42:27 74.29, 147.54 09/22/2012 01:43:35 74.31, 149.45 57.47 68
10 09/24/2012 19:37:42 73.78,-120.15 09/24/2012 19:36:47 73.77,-120.15 1.11 55
11 09/24/2012 20:27:09 -73.83, 47.39 09/24/2012 20:27:28 -73.82, 47.29 3.26 19
12 09/24/2012 21:16:48 74.44,-146.39 09/24/2012 21:17:55 74.44,-143.82 76.75 67
13 09/27/2012 15:12:01 73.79, -53.76 09/27/2012 15:11:08 73.80, -53.66 3.37 53
14 09/27/2012 16:01:28 -73.84, 113.78 09/27/2012 16:01:49 -73.86, 113.79 1.92 21




NCC Satellite Simultaneous Nadir Overpasses (SNOs) Prediction Service
